Location: Three Oaks Observatory
(31.1535°N, 83.5955°W)
Time: 00:37:17
(UTC-05:00)

Hubble Space Telescope - Pass Details

Date: 21 September 2018
Orbit: 537 x 540 km, 28.5° (Epoch: 14 December)

Event Time Altitude Azimuth Distance (km) Brightness Sun altitude
Rises 21:39:59 0° 270° (W) 2,670 5.4 -27.7°
Reaches altitude 10° 21:42:17 10° 264° (W) 1,779 4.2 -28.2°
Enters shadow 21:44:23 27° 250° (WSW) 1,044 2.6 -28.6°
